Time,TemperatureF,DewpointF,PressureIn,WindDirection,WindDirectionDegrees,WindSpeedMPH,WindSpeedGustMPH,Humidity,HourlyPrecipIn,Conditions,Clouds,dailyrainin,SoftwareType,DateUTC
2013-11-27 00:09:00,71.4,70.2,29.69,SW,221,4.0,14.0,96,0.21,,,0.05,Weather View 32 v70,2013-11-27 05:09:00,
2013-11-27 00:19:00,70.8,69.6,29.69,SSE,163,4.0,14.0,96,0.19,,,0.07,Weather View 32 v70,2013-11-27 05:19:00,
2013-11-27 00:29:00,70.7,69.2,29.69,SSE,166,8.0,14.0,95,0.16,,,0.07,Weather View 32 v70,2013-11-27 05:29:00,
2013-11-27 00:39:00,70.5,69.0,29.69,WSW,252,1.0,14.0,95,0.15,,,0.08,Weather View 32 v70,2013-11-27 05:39:00,
2013-11-27 00:49:00,70.3,68.8,29.68,South,185,5.0,14.0,95,0.14,,,0.09,Weather View 32 v70,2013-11-27 05:49:00,
2013-11-27 00:59:00,70.2,68.7,29.68,SSW,194,3.0,14.0,95,0.09,,,0.09,Weather View 32 v70,2013-11-27 05:59:00,
2013-11-27 01:09:00,70.1,68.6,29.67,South,175,7.0,13.0,95,0.04,,,0.09,Weather View 32 v70,2013-11-27 06:09:00,
2013-11-27 01:19:00,70.0,68.5,29.65,SSE,167,3.0,11.0,95,0.02,,,0.09,Weather View 32 v70,2013-11-27 06:19:00,
2013-11-27 01:29:00,70.0,68.8,29.64,South,173,1.0,11.0,96,0.02,,,0.09,Weather View 32 v70,2013-11-27 06:29:00,
2013-11-27 01:30:00,70.0,68.8,29.64,South,173,1.0,11.0,96,0.02,,,0.09,Weather View 32 v70,2013-11-27 06:30:00,
2013-11-27 01:39:00,69.9,68.7,29.64,SSE,163,6.0,11.0,96,0.01,,,0.09,Weather View 32 v70,2013-11-27 06:39:00,
2013-11-27 01:49:00,69.9,68.7,29.64,SSE,165,7.0,11.0,96,0.00,,,0.09,Weather View 32 v70,2013-11-27 06:49:00,
2013-11-27 01:59:00,69.8,68.6,29.65,South,172,9.0,11.0,96,0.00,,,0.09,Weather View 32 v70,2013-11-27 06:59:00,
2013-11-27 02:09:00,69.7,68.5,29.65,South,173,2.0,11.0,96,0.00,,,0.09,Weather View 32 v70,2013-11-27 07:09:00,
2013-11-27 02:19:00,69.5,68.3,29.65,South,174,3.0,11.0,96,0.00,,,0.09,Weather View 32 v70,2013-11-27 07:19:00,
2013-11-27 02:29:00,69.3,68.1,29.65,South,182,4.0,11.0,96,0.00,,,0.09,Weather View 32 v70,2013-11-27 07:29:00,
2013-11-27 02:39:00,69.2,68.0,29.65,South,179,5.0,11.0,96,0.00,,,0.09,Weather View 32 v70,2013-11-27 07:39:00,
2013-11-27 02:49:00,69.1,67.9,29.64,SSW,192,1.0,11.0,96,0.00,,,0.09,Weather View 32 v70,2013-11-27 07:49:00,
2013-11-27 02:59:00,69.0,67.8,29.64,SSE,162,2.0,11.0,96,0.00,,,0.09,Weather View 32 v70,2013-11-27 07:59:00,
2013-11-27 03:09:00,69.0,67.8,29.64,South,186,4.0,11.0,96,0.00,,,0.09,Weather View 32 v70,2013-11-27 08:09:00,
2013-11-27 03:19:00,68.9,67.7,29.65,South,172,6.0,11.0,96,0.00,,,0.09,Weather View 32 v70,2013-11-27 08:19:00,
2013-11-27 03:29:00,68.9,67.7,29.65,SW,232,2.0,10.0,96,0.18,,,0.27,Weather View 32 v70,2013-11-27 08:29:00,
2013-11-27 03:31:00,68.9,67.7,29.65,SW,232,2.0,10.0,96,0.18,,,0.27,Weather View 32 v70,2013-11-27 08:31:00,
2013-11-27 03:39:00,68.8,67.6,29.65,SSE,167,0.0,10.0,96,0.19,,,0.28,Weather View 32 v70,2013-11-27 08:39:00,
2013-11-27 03:49:00,68.7,67.5,29.65,WSW,244,3.0,11.0,96,0.22,,,0.31,Weather View 32 v70,2013-11-27 08:49:00,
2013-11-27 03:59:00,68.4,67.2,29.65,SW,216,0.0,11.0,96,0.22,,,0.31,Weather View 32 v70,2013-11-27 08:59:00,
2013-11-27 04:09:00,68.3,67.1,29.65,WSW,253,2.0,11.0,96,0.22,,,0.31,Weather View 32 v70,2013-11-27 09:09:00,
2013-11-27 04:19:00,68.0,66.8,29.66,SE,145,0.0,11.0,96,0.22,,,0.31,Weather View 32 v70,2013-11-27 09:19:00,
2013-11-27 04:29:00,67.7,66.5,29.66,SW,230,0.0,11.0,96,0.04,,,0.31,Weather View 32 v70,2013-11-27 09:29:00,
2013-11-27 04:31:00,67.7,66.5,29.66,SW,230,0.0,11.0,96,0.04,,,0.31,Weather View 32 v70,2013-11-27 09:31:00,
2013-11-27 04:39:00,67.1,65.6,29.67,WSW,244,1.0,11.0,95,0.03,,,0.31,Weather View 32 v70,2013-11-27 09:39:00,
2013-11-27 04:49:00,65.9,64.1,29.67,West,277,5.0,11.0,94,0.00,,,0.31,Weather View 32 v70,2013-11-27 09:49:00,
2013-11-27 04:59:00,65.0,62.9,29.67,WSW,252,3.0,11.0,93,0.00,,,0.31,Weather View 32 v70,2013-11-27 09:59:00,
2013-11-27 05:09:00,64.1,62.0,29.68,West,264,0.0,11.0,93,0.00,,,0.31,Weather View 32 v70,2013-11-27 10:09:00,
2013-11-27 05:19:00,63.6,61.5,29.69,SW,229,2.0,11.0,93,0.00,,,0.31,Weather View 32 v70,2013-11-27 10:19:00,
2013-11-27 05:29:00,63.1,61.0,29.70,SW,225,3.0,11.0,93,0.00,,,0.31,Weather View 32 v70,2013-11-27 10:29:00,
2013-11-27 05:32:00,63.1,61.0,29.70,SW,225,3.0,11.0,93,0.00,,,0.31,Weather View 32 v70,2013-11-27 10:32:00,
2013-11-27 05:39:00,62.3,59.6,29.71,WSW,241,1.0,20.0,91,0.00,,,0.31,Weather View 32 v70,2013-11-27 10:39:00,
2013-11-27 05:49:00,61.7,59.0,29.71,SSW,205,0.0,20.0,91,0.00,,,0.31,Weather View 32 v70,2013-11-27 10:49:00,
2013-11-27 05:59:00,61.3,58.6,29.72,SW,231,0.0,20.0,91,0.00,,,0.31,Weather View 32 v70,2013-11-27 10:59:00,
2013-11-27 06:09:00,61.0,58.3,29.72,SSW,205,1.0,20.0,91,0.00,,,0.31,Weather View 32 v70,2013-11-27 11:09:00,
2013-11-27 06:19:00,60.6,57.6,29.73,West,281,2.0,20.0,90,0.00,,,0.31,Weather View 32 v70,2013-11-27 11:19:00,
2013-11-27 06:29:00,59.7,55.8,29.74,WNW,282,1.0,20.0,87,0.00,,,0.31,Weather View 32 v70,2013-11-27 11:29:00,
2013-11-27 06:32:00,59.7,55.8,29.74,WNW,282,1.0,20.0,87,0.00,,,0.31,Weather View 32 v70,2013-11-27 11:32:00,
2013-11-27 06:39:00,58.9,55.0,29.75,WSW,244,0.0,18.0,87,0.00,,,0.31,Weather View 32 v70,2013-11-27 11:39:00,
2013-11-27 06:49:00,58.4,54.8,29.76,West,268,4.0,14.0,88,0.00,,,0.31,Weather View 32 v70,2013-11-27 11:49:00,
2013-11-27 06:59:00,58.2,54.7,29.76,West,259,4.0,14.0,88,0.00,,,0.31,Weather View 32 v70,2013-11-27 11:59:00,
2013-11-27 07:09:00,57.9,54.4,29.77,SW,230,0.0,14.0,88,0.00,,,0.31,Weather View 32 v70,2013-11-27 12:09:00,
2013-11-27 07:19:00,57.7,54.2,29.77,WNW,288,1.0,14.0,88,0.00,,,0.31,Weather View 32 v70,2013-11-27 12:19:00,
2013-11-27 07:29:00,57.5,54.0,29.78,ESE,102,3.0,11.0,88,0.00,,,0.31,Weather View 32 v70,2013-11-27 12:29:00,
2013-11-27 07:33:00,57.5,54.0,29.78,ESE,102,3.0,11.0,88,0.00,,,0.31,Weather View 32 v70,2013-11-27 12:33:00,
2013-11-27 07:39:00,57.2,53.4,29.78,SW,225,1.0,11.0,87,0.00,,,0.31,Weather View 32 v70,2013-11-27 12:39:00,
2013-11-27 07:49:00,57.2,53.4,29.78,West,262,5.0,11.0,87,0.00,,,0.31,Weather View 32 v70,2013-11-27 12:49:00,
2013-11-27 07:59:00,57.1,53.3,29.78,SSW,211,0.0,11.0,87,0.00,,,0.31,Weather View 32 v70,2013-11-27 12:59:00,
2013-11-27 08:09:00,57.4,53.2,29.79,NW,305,4.0,11.0,86,0.00,,,0.31,Weather View 32 v70,2013-11-27 13:09:00,
2013-11-27 08:19:00,57.4,53.6,29.79,NW,315,4.0,11.0,87,0.00,,,0.31,Weather View 32 v70,2013-11-27 13:19:00,
2013-11-27 08:29:00,57.2,53.0,29.80,WSW,248,1.0,10.0,86,0.00,,,0.31,Weather View 32 v70,2013-11-27 13:29:00,
2013-11-27 08:34:00,57.2,53.0,29.80,WSW,248,1.0,10.0,86,0.00,,,0.31,Weather View 32 v70,2013-11-27 13:34:00,
2013-11-27 08:39:00,57.1,52.9,29.81,WNW,288,2.0,10.0,86,0.00,,,0.31,Weather View 32 v70,2013-11-27 13:39:00,
2013-11-27 08:49:00,57.1,52.6,29.81,North,0,3.0,10.0,85,0.00,,,0.31,Weather View 32 v70,2013-11-27 13:49:00,
2013-11-27 08:59:00,56.8,52.6,29.82,WSW,249,2.0,10.0,86,0.00,,,0.31,Weather View 32 v70,2013-11-27 13:59:00,
2013-11-27 09:09:00,56.7,52.2,29.83,West,281,7.0,10.0,85,0.00,,,0.31,Weather View 32 v70,2013-11-27 14:09:00,
2013-11-27 09:19:00,56.8,52.3,29.84,SSW,194,6.0,10.0,85,0.00,,,0.31,Weather View 32 v70,2013-11-27 14:19:00,
2013-11-27 09:29:00,56.1,51.3,29.85,West,267,4.0,16.0,84,0.00,,,0.31,Weather View 32 v70,2013-11-27 14:29:00,
2013-11-27 09:35:00,56.1,51.3,29.85,West,267,4.0,16.0,84,0.00,,,0.31,Weather View 32 v70,2013-11-27 14:35:00,
2013-11-27 09:39:00,55.6,51.2,29.86,West,259,2.0,16.0,85,0.00,,,0.31,Weather View 32 v70,2013-11-27 14:39:00,
2013-11-27 09:49:00,55.4,51.3,29.86,SW,216,4.0,16.0,86,0.00,,,0.31,Weather View 32 v70,2013-11-27 14:49:00,
2013-11-27 09:59:00,55.1,50.7,29.87,SW,233,4.0,16.0,85,0.00,,,0.31,Weather View 32 v70,2013-11-27 14:59:00,
2013-11-27 10:09:00,55.5,50.7,29.87,West,265,4.0,16.0,84,0.00,,,0.31,Weather View 32 v70,2013-11-27 15:09:00,
2013-11-27 10:19:00,55.3,50.9,29.87,WSW,246,1.0,16.0,85,0.00,,,0.31,Weather View 32 v70,2013-11-27 15:19:00,
2013-11-27 10:29:00,55.3,50.9,29.88,SW,228,2.0,14.0,85,0.00,,,0.31,Weather View 32 v70,2013-11-27 15:29:00,
2013-11-27 10:36:00,55.3,50.9,29.88,SW,228,2.0,14.0,85,0.00,,,0.31,Weather View 32 v70,2013-11-27 15:36:00,
2013-11-27 10:39:00,55.3,50.9,29.88,West,264,5.0,14.0,85,0.00,,,0.31,Weather View 32 v70,2013-11-27 15:39:00,
2013-11-27 10:49:00,55.2,50.4,29.89,SSW,210,2.0,14.0,84,0.00,,,0.31,Weather View 32 v70,2013-11-27 15:49:00,
2013-11-27 10:59:00,55.4,51.0,29.89,SW,232,1.0,14.0,85,0.00,,,0.31,Weather View 32 v70,2013-11-27 15:59:00,
2013-11-27 11:09:00,55.6,50.5,29.89,WSW,240,2.0,14.0,83,0.00,,,0.31,Weather View 32 v70,2013-11-27 16:09:00,
2013-11-27 11:19:00,55.7,50.9,29.89,WSW,240,3.0,14.0,84,0.00,,,0.31,Weather View 32 v70,2013-11-27 16:19:00,
2013-11-27 11:29:00,56.2,51.4,29.89,West,265,3.0,14.0,84,0.00,,,0.31,Weather View 32 v70,2013-11-27 16:29:00,
2013-11-27 11:36:00,56.2,51.4,29.89,West,265,3.0,14.0,84,0.00,,,0.31,Weather View 32 v70,2013-11-27 16:36:00,
2013-11-27 11:39:00,56.2,51.4,29.89,West,261,5.0,14.0,84,0.00,,,0.31,Weather View 32 v70,2013-11-27 16:39:00,
2013-11-27 11:49:00,55.8,51.0,29.89,SSW,197,4.0,14.0,84,0.00,,,0.31,Weather View 32 v70,2013-11-27 16:49:00,
2013-11-27 11:59:00,56.4,51.3,29.89,SW,230,2.0,13.0,83,0.00,,,0.31,Weather View 32 v70,2013-11-27 16:59:00,
2013-11-27 12:09:00,56.0,50.6,29.90,West,271,4.0,13.0,82,0.00,,,0.31,Weather View 32 v70,2013-11-27 17:09:00,
2013-11-27 12:19:00,55.4,50.0,29.89,WSW,254,5.0,14.0,82,0.00,,,0.31,Weather View 32 v70,2013-11-27 17:19:00,
2013-11-27 12:29:00,55.3,49.2,29.89,WNW,284,5.0,14.0,80,0.00,,,0.31,Weather View 32 v70,2013-11-27 17:29:00,
2013-11-27 12:37:00,55.3,49.2,29.89,WNW,284,5.0,14.0,80,0.00,,,0.31,Weather View 32 v70,2013-11-27 17:37:00,
2013-11-27 12:40:00,55.6,49.5,29.89,West,267,3.0,14.0,80,0.00,,,0.31,Weather View 32 v70,2013-11-27 17:40:00,
2013-11-27 12:50:00,56.1,49.3,29.89,North,0,4.0,14.0,78,0.00,,,0.31,Weather View 32 v70,2013-11-27 17:50:00,
2013-11-27 12:59:00,56.5,49.0,29.88,SW,236,6.0,14.0,76,0.00,,,0.31,Weather View 32 v70,2013-11-27 17:59:00,
2013-11-27 13:09:00,55.8,48.0,29.89,WNW,288,9.0,16.0,75,0.00,,,0.31,Weather View 32 v70,2013-11-27 18:09:00,
2013-11-27 13:19:00,55.8,48.7,29.89,West,273,7.0,16.0,77,0.00,,,0.31,Weather View 32 v70,2013-11-27 18:19:00,
2013-11-27 13:29:00,55.7,48.2,29.89,WSW,250,1.0,16.0,76,0.00,,,0.31,Weather View 32 v70,2013-11-27 18:29:00,
2013-11-27 13:38:00,55.7,48.2,29.89,WSW,250,1.0,16.0,76,0.00,,,0.31,Weather View 32 v70,2013-11-27 18:38:00,
2013-11-27 13:49:00,55.9,48.8,29.90,West,274,6.0,16.0,77,0.00,,,0.31,Weather View 32 v70,2013-11-27 18:49:00,
2013-11-27 13:59:00,55.6,48.5,29.90,SW,229,7.0,16.0,77,0.00,,,0.31,Weather View 32 v70,2013-11-27 18:59:00,
2013-11-27 14:09:00,54.4,47.7,29.91,North,0,1.0,16.0,78,0.00,,,0.31,Weather View 32 v70,2013-11-27 19:09:00,
2013-11-27 14:19:00,54.1,46.3,29.91,SW,231,3.0,17.0,75,0.00,,,0.31,Weather View 32 v70,2013-11-27 19:19:00,
2013-11-27 14:29:00,53.5,46.1,29.92,WNW,283,6.0,17.0,76,0.00,,,0.31,Weather View 32 v70,2013-11-27 19:29:00,
2013-11-27 14:38:00,53.5,46.1,29.92,WNW,283,6.0,17.0,76,0.00,,,0.31,Weather View 32 v70,2013-11-27 19:38:00,
2013-11-27 14:39:00,53.8,46.4,29.92,WSW,248,6.0,17.0,76,0.00,,,0.31,Weather View 32 v70,2013-11-27 19:39:00,
2013-11-27 14:49:00,53.9,47.2,29.93,WNW,293,3.0,17.0,78,0.00,,,0.31,Weather View 32 v70,2013-11-27 19:49:00,
2013-11-27 14:59:00,53.5,46.5,29.93,West,280,6.0,17.0,77,0.00,,,0.31,Weather View 32 v70,2013-11-27 19:59:00,
2013-11-27 15:09:00,53.2,46.5,29.94,West,269,5.0,17.0,78,0.00,,,0.31,Weather View 32 v70,2013-11-27 20:09:00,
2013-11-27 15:19:00,53.1,46.1,29.94,WSW,256,4.0,16.0,77,0.00,,,0.31,Weather View 32 v70,2013-11-27 20:19:00,
2013-11-27 15:29:00,52.7,45.3,29.94,West,279,3.0,16.0,76,0.00,,,0.31,Weather View 32 v70,2013-11-27 20:29:00,
2013-11-27 15:39:00,52.7,45.3,29.94,West,279,3.0,16.0,76,0.00,,,0.31,Weather View 32 v70,2013-11-27 20:39:00,
2013-11-27 15:49:00,52.2,45.5,29.95,North,0,3.0,14.0,78,0.00,,,0.31,Weather View 32 v70,2013-11-27 20:49:00,
2013-11-27 15:59:00,51.9,44.9,29.96,NNW,348,2.0,14.0,77,0.00,,,0.31,Weather View 32 v70,2013-11-27 20:59:00,
2013-11-27 16:09:00,51.1,44.1,29.96,West,262,0.0,12.0,77,0.00,,,0.31,Weather View 32 v70,2013-11-27 21:09:00,
2013-11-27 16:19:00,51.0,44.0,29.97,WNW,288,5.0,12.0,77,0.00,,,0.31,Weather View 32 v70,2013-11-27 21:19:00,
2013-11-27 16:29:00,51.2,44.6,29.97,WNW,289,0.0,12.0,78,0.00,,,0.31,Weather View 32 v70,2013-11-27 21:29:00,
2013-11-27 16:39:00,51.4,44.1,29.98,WSW,254,1.0,12.0,76,0.00,,,0.31,Weather View 32 v70,2013-11-27 21:39:00,
2013-11-27 16:49:00,50.5,43.5,29.99,SW,217,2.0,12.0,77,0.00,,,0.31,Weather View 32 v70,2013-11-27 21:49:00,
2013-11-27 16:59:00,50.0,43.4,30.00,West,270,6.0,12.0,78,0.00,,,0.31,Weather View 32 v70,2013-11-27 21:59:00,
2013-11-27 17:09:00,49.2,42.6,30.01,West,272,7.0,15.0,78,0.00,,,0.31,Weather View 32 v70,2013-11-27 22:09:00,
2013-11-27 17:19:00,48.2,41.3,30.02,West,273,2.0,15.0,77,0.00,,,0.31,Weather View 32 v70,2013-11-27 22:19:00,
2013-11-27 17:29:00,47.4,41.2,30.03,West,281,4.0,15.0,79,0.00,,,0.31,Weather View 32 v70,2013-11-27 22:29:00,
2013-11-27 17:39:00,46.8,40.9,30.03,West,277,0.0,15.0,80,0.00,,,0.31,Weather View 32 v70,2013-11-27 22:39:00,
2013-11-27 17:40:00,46.8,40.9,30.03,West,277,0.0,15.0,80,0.00,,,0.31,Weather View 32 v70,2013-11-27 22:40:00,
2013-11-27 17:49:00,46.2,40.4,30.04,West,262,4.0,15.0,80,0.00,,,0.31,Weather View 32 v70,2013-11-27 22:49:00,
2013-11-27 17:59:00,45.9,40.4,30.05,West,261,5.0,15.0,81,0.00,,,0.31,Weather View 32 v70,2013-11-27 22:59:00,
2013-11-27 18:09:00,45.4,40.2,30.06,WNW,290,3.0,11.0,82,0.00,,,0.31,Weather View 32 v70,2013-11-27 23:09:00,
2013-11-27 18:19:00,45.1,39.9,30.07,West,275,0.0,9.0,82,0.00,,,0.31,Weather View 32 v70,2013-11-27 23:19:00,
2013-11-27 18:29:00,44.7,39.5,30.08,West,268,1.0,9.0,82,0.00,,,0.31,Weather View 32 v70,2013-11-27 23:29:00,
2013-11-27 18:39:00,44.3,39.8,30.09,West,265,0.0,9.0,84,0.00,,,0.31,Weather View 32 v70,2013-11-27 23:39:00,
2013-11-27 18:40:00,44.3,39.8,30.09,West,265,0.0,9.0,84,0.00,,,0.31,Weather View 32 v70,2013-11-27 23:40:00,
2013-11-27 18:49:00,44.0,39.8,30.10,WSW,247,0.0,9.0,85,0.00,,,0.31,Weather View 32 v70,2013-11-27 23:49:00,
2013-11-27 18:59:00,43.8,39.3,30.10,WNW,286,1.0,7.0,84,0.00,,,0.31,Weather View 32 v70,2013-11-27 23:59:00,
2013-11-27 19:09:00,43.5,39.0,30.11,West,274,1.0,7.0,84,0.00,,,0.31,Weather View 32 v70,2013-11-28 00:09:00,
2013-11-27 19:19:00,43.3,39.1,30.12,West,276,0.0,6.0,85,0.00,,,0.31,Weather View 32 v70,2013-11-28 00:19:00,
2013-11-27 19:29:00,43.1,38.9,30.12,West,280,0.0,5.0,85,0.00,,,0.31,Weather View 32 v70,2013-11-28 00:29:00,
2013-11-27 19:39:00,42.9,38.7,30.13,WNW,286,1.0,5.0,85,0.00,,,0.31,Weather View 32 v70,2013-11-28 00:39:00,
2013-11-27 19:49:00,42.8,38.9,30.13,WNW,286,0.0,7.0,86,0.00,,,0.31,Weather View 32 v70,2013-11-28 00:49:00,
2013-11-27 19:59:00,42.5,38.6,30.14,West,267,2.0,7.0,86,0.00,,,0.31,Weather View 32 v70,2013-11-28 00:59:00,
2013-11-27 20:09:00,42.3,38.4,30.14,West,271,1.0,7.0,86,0.00,,,0.31,Weather View 32 v70,2013-11-28 01:09:00,
2013-11-27 20:19:00,41.9,38.3,30.14,West,267,0.0,7.0,87,0.00,,,0.31,Weather View 32 v70,2013-11-28 01:19:00,
2013-11-27 20:29:00,41.6,38.0,30.15,West,267,0.0,7.0,87,0.00,,,0.31,Weather View 32 v70,2013-11-28 01:29:00,
2013-11-27 20:39:00,41.4,38.4,30.16,West,267,0.0,7.0,89,0.00,,,0.31,Weather View 32 v70,2013-11-28 01:39:00,
2013-11-27 20:42:00,41.4,38.4,30.16,West,267,0.0,7.0,89,0.00,,,0.31,Weather View 32 v70,2013-11-28 01:42:00,
2013-11-27 20:49:00,40.9,37.9,30.16,West,267,0.0,5.0,89,0.00,,,0.31,Weather View 32 v70,2013-11-28 01:49:00,
2013-11-27 20:59:00,40.4,37.7,30.17,West,267,0.0,4.0,90,0.00,,,0.31,Weather View 32 v70,2013-11-28 01:59:00,
2013-11-27 21:09:00,40.1,37.7,30.17,West,267,0.0,3.0,91,0.00,,,0.31,Weather View 32 v70,2013-11-28 02:09:00,
2013-11-27 21:19:00,39.8,37.4,30.17,West,267,0.0,2.0,91,0.00,,,0.31,Weather View 32 v70,2013-11-28 02:19:00,
2013-11-27 21:29:00,39.6,37.5,30.18,West,267,0.0,0.0,92,0.00,,,0.31,Weather View 32 v70,2013-11-28 02:29:00,
2013-11-27 21:39:00,39.3,37.2,30.18,West,267,0.0,0.0,92,0.00,,,0.31,Weather View 32 v70,2013-11-28 02:39:00,
2013-11-27 21:42:00,39.3,37.2,30.18,West,267,0.0,0.0,92,0.00,,,0.31,Weather View 32 v70,2013-11-28 02:42:00,
2013-11-27 21:49:00,39.1,37.0,30.19,West,267,0.0,0.0,92,0.00,,,0.31,Weather View 32 v70,2013-11-28 02:49:00,
2013-11-27 21:59:00,38.9,36.8,30.19,West,267,0.0,0.0,92,0.00,,,0.31,Weather View 32 v70,2013-11-28 02:59:00,
2013-11-27 22:09:00,38.9,36.8,30.19,West,267,0.0,1.0,92,0.00,,,0.31,Weather View 32 v70,2013-11-28 03:09:00,
2013-11-27 22:19:00,38.9,36.8,30.20,West,267,0.0,1.0,92,0.00,,,0.31,Weather View 32 v70,2013-11-28 03:19:00,
2013-11-27 22:29:00,39.2,37.1,30.21,West,267,0.0,1.0,92,0.00,,,0.31,Weather View 32 v70,2013-11-28 03:29:00,
2013-11-27 22:39:00,38.9,36.5,30.21,West,267,0.0,1.0,91,0.00,,,0.31,Weather View 32 v70,2013-11-28 03:39:00,
2013-11-27 22:43:00,38.9,36.5,30.21,West,267,0.0,1.0,91,0.00,,,0.31,Weather View 32 v70,2013-11-28 03:43:00,
2013-11-27 22:49:00,38.4,36.0,30.21,West,267,0.0,1.0,91,0.00,,,0.31,Weather View 32 v70,2013-11-28 03:49:00,
2013-11-27 22:59:00,38.3,36.2,30.22,West,267,0.0,1.0,92,0.00,,,0.31,Weather View 32 v70,2013-11-28 03:59:00,
2013-11-27 23:09:00,37.9,35.8,30.22,West,267,0.0,1.0,92,0.00,,,0.31,Weather View 32 v70,2013-11-28 04:09:00,
2013-11-27 23:19:00,37.6,35.5,30.22,West,267,0.0,0.0,92,0.00,,,0.31,Weather View 32 v70,2013-11-28 04:19:00,
2013-11-27 23:29:00,37.4,35.6,30.22,West,267,0.0,0.0,93,0.00,,,0.31,Weather View 32 v70,2013-11-28 04:29:00,
2013-11-27 23:39:00,37.0,35.2,30.22,West,267,0.0,1.0,93,0.00,,,0.31,Weather View 32 v70,2013-11-28 04:39:00,
2013-11-27 23:43:00,37.0,35.2,30.22,West,267,0.0,1.0,93,0.00,,,0.31,Weather View 32 v70,2013-11-28 04:43:00,
2013-11-27 23:49:00,37.0,34.9,30.22,West,264,0.0,3.0,92,0.00,,,0.31,Weather View 32 v70,2013-11-28 04:49:00,
2013-11-27 23:59:00,37.4,35.3,30.22,West,265,0.0,3.0,92,0.00,,,0.00,Weather View 32 v70,2013-11-28 04:59:00,